Weather History for KPYX - September, 2013

Change the Weather History Date:

Saturday, September 7, 2013

  Actual Average Record
Temperature  
Mean Temperature 82 °F -  
Max Temperature 99 °F 88 °F 99 °F (1971)
Min Temperature 64 °F 60 °F 52 °F (1973)
Cooling Degree Days 16    
Growing Degree Days 32 (Base 50)    
Moisture  
Dew Point 51 °F    
Average Humidity 37    
Maximum Humidity 64    
Minimum Humidity 17    
Precipitation  
Precipitation 0.00 in - - ()
Sea Level Pressure  
Sea Level Pressure 30.05 in    
Wind  
Wind Speed 8 mph (SSW)    
Max Wind Speed 13 mph    
Max Gust Speed 25 mph    
Visibility 10 miles    
Events      
Averages and records for this station are not official NWS values.
T = Trace of Precipitation, MM = Missing Value Source: NWS Daily Summary

Daily Weather History Graph

Daily Weather History Graph

Search for Another Location

Airport or City:

Trip Planner

Search our weather history database for the weather conditions in past years. The results will help you decide how hot, cold, wet, or windy it might be!

Date:

Astronomy

Sep. 07, 2013 Rise Set
Actual Time 7:19 AM CDT 8:01 PM CDT
Civil Twilight 6:53 AM CDT 8:27 PM CDT
Nautical Twilight 6:22 AM CDT 8:58 PM CDT
Astronomical Twilight 5:50 AM CDT 9:30 PM CDT
Moon 9:30 AM CDT (9/7) 9:07 PM CDT (9/7)
Length of Visible Light 13h 34m
Length of Day
12h 42m
Waxing Crescent, 5% of the Moon is Illuminated
Sep 7
Waxing Crescent
Sep 12
First Quarter
Sep 19
Full
Sep 26
Last Quarter
Oct 4
New

Hourly Weather History & Observations

Time (CDT) Temp. Heat Index Dew Point Humidity Pressure Visibility Wind Dir Wind Speed Gust Speed Precip Events Conditions
12:15 AM 75.6 °F - 52.7 °F 45% 30.07 in 10.0 mi South 9.2 mph - N/A   Unknown
12:35 AM 75.2 °F - 52.7 °F 45% 30.07 in 10.0 mi South 8.1 mph - N/A   Unknown
12:55 AM 73.8 °F - 52.9 °F 48% 30.07 in 10.0 mi South 8.1 mph - N/A   Unknown
1:15 AM 73.8 °F - 52.9 °F 48% 30.07 in 10.0 mi South 8.1 mph - N/A   Unknown
1:35 AM 73.9 °F - 53.1 °F 48% 30.07 in 10.0 mi South 9.2 mph - N/A   Unknown
1:55 AM 72.1 °F - 53.1 °F 51% 30.07 in 10.0 mi South 6.9 mph - N/A   Unknown
2:15 AM 71.6 °F - 53.1 °F 52% 30.07 in 10.0 mi South 6.9 mph - N/A   Unknown
2:35 AM 70.5 °F - 52.9 °F 54% 30.07 in 10.0 mi South 8.1 mph - N/A   Unknown
2:55 AM 70.0 °F - 53.1 °F 55% 30.07 in 10.0 mi South 8.1 mph - N/A   Unknown
3:15 AM 69.8 °F - 53.6 °F 56% 30.06 in 10.0 mi SSE 8.1 mph - N/A   Unknown
3:35 AM 69.3 °F - 53.1 °F 56% 30.06 in 10.0 mi South 6.9 mph - N/A   Unknown
3:55 AM 68.9 °F - 52.9 °F 57% 30.06 in 10.0 mi South 8.1 mph - N/A   Unknown
4:15 AM 69.8 °F - 52.7 °F 54% 30.06 in 10.0 mi South 6.9 mph - N/A   Unknown
4:35 AM 68.0 °F - 52.5 °F 58% 30.06 in 10.0 mi SSW 6.9 mph - N/A   Unknown
4:55 AM 67.1 °F - 52.0 °F 58% 30.06 in 10.0 mi SSW 8.1 mph - N/A   Unknown
5:15 AM 66.9 °F - 52.2 °F 59% 30.06 in 10.0 mi SSW 8.1 mph - N/A   Unknown
5:35 AM 65.8 °F - 51.8 °F 60% 30.06 in 10.0 mi SW 8.1 mph - N/A   Unknown
5:55 AM 66.4 °F - 52.0 °F 60% 30.06 in 10.0 mi SSW 6.9 mph - N/A   Unknown
6:15 AM 66.9 °F - 52.3 °F 59% 30.06 in 10.0 mi SW 5.8 mph - N/A   Unknown
6:35 AM 65.3 °F - 51.8 °F 62% 30.07 in 10.0 mi SW 5.8 mph - N/A   Unknown
6:55 AM 64.4 °F - 51.8 °F 64% 30.06 in 10.0 mi WSW 6.9 mph - N/A   Unknown
7:15 AM 66.2 °F - 52.3 °F 61% 30.07 in 10.0 mi SW 6.9 mph - N/A   Unknown
7:35 AM 66.7 °F - 52.9 °F 61% 30.07 in 10.0 mi SW 8.1 mph - N/A   Unknown
7:55 AM 68.7 °F - 53.2 °F 58% 30.07 in 10.0 mi SW 5.8 mph - N/A   Unknown
8:15 AM 70.7 °F - 53.6 °F 55% 30.08 in 10.0 mi SW 6.9 mph - N/A   Unknown
8:35 AM 73.0 °F - 53.8 °F 51% 30.08 in 10.0 mi SW 8.1 mph - N/A   Unknown
8:55 AM 75.6 °F - 53.8 °F 47% 30.08 in 10.0 mi SW 9.2 mph - N/A   Unknown
9:15 AM 77.7 °F - 54.0 °F 44% 30.08 in 10.0 mi SW 8.1 mph - N/A   Unknown
9:35 AM 81.1 °F 80.7 °F 53.8 °F 39% 30.08 in 10.0 mi WSW 8.1 mph - N/A   Unknown
9:55 AM 84.6 °F 83.0 °F 53.6 °F 34% 30.09 in 10.0 mi WSW 9.2 mph - N/A   Unknown
10:15 AM 87.1 °F 85.1 °F 53.6 °F 32% 30.09 in 10.0 mi West 10.4 mph - N/A   Unknown
10:35 AM 89.1 °F 86.9 °F 53.4 °F 30% 30.09 in 10.0 mi West 9.2 mph - N/A   Unknown
10:55 AM 91.6 °F 89.1 °F 53.2 °F 27% 30.10 in 10.0 mi West 12.7 mph - N/A   Unknown
11:15 AM 92.1 °F - 52.5 °F 26% 30.10 in 10.0 mi West 10.4 mph - N/A   Unknown
11:35 AM 93.7 °F - 52.3 °F 24% 30.10 in 10.0 mi West 10.4 mph - N/A   Unknown
11:55 AM 93.0 °F - 52.2 °F 25% 30.09 in 10.0 mi West 8.1 mph - N/A   Unknown
12:15 PM 94.5 °F - 51.6 °F 23% 30.09 in 10.0 mi West 8.1 mph 16.1 mph N/A   Unknown
12:35 PM 95.2 °F - 50.9 °F 22% 30.09 in 10.0 mi South 6.9 mph - N/A   Unknown
12:55 PM 95.2 °F - 50.5 °F 22% 30.08 in 10.0 mi SSE 5.8 mph 20.7 mph N/A   Unknown
1:15 PM 96.3 °F - 50.7 °F 21% 30.07 in 10.0 mi SSW 8.1 mph 11.5 mph N/A   Unknown
1:35 PM 97.3 °F - 49.8 °F 20% 30.06 in 10.0 mi SSE 8.1 mph - N/A   Unknown
1:55 PM 97.3 °F - 49.6 °F 20% 30.06 in 10.0 mi South 10.4 mph 19.6 mph N/A   Unknown
2:15 PM 97.9 °F - 49.8 °F 20% 30.05 in 10.0 mi SW 12.7 mph 17.3 mph N/A   Unknown
2:35 PM 98.8 °F - 48.7 °F 18% 30.05 in 10.0 mi SW 11.5 mph 18.4 mph N/A   Unknown
2:55 PM 99.9 °F - 48.4 °F 17% 30.04 in 10.0 mi SE 8.1 mph 25.3 mph N/A   Unknown
3:15 PM 97.7 °F - 48.9 °F 19% 30.03 in 10.0 mi South 9.2 mph - N/A   Unknown
3:35 PM 97.7 °F - 48.0 °F 18% 30.03 in 10.0 mi South 6.9 mph - N/A   Unknown
3:55 PM 98.4 °F - 48.6 °F 18% 30.02 in 10.0 mi SW 6.9 mph 17.3 mph N/A   Unknown
4:15 PM 99.5 °F - 48.0 °F 17% 30.01 in 10.0 mi SSW 9.2 mph - N/A   Unknown
4:35 PM 96.4 °F - 48.2 °F 19% 30.01 in 10.0 mi SSE 9.2 mph - N/A   Unknown
4:55 PM 96.6 °F - 48.9 °F 20% 30.00 in 10.0 mi SSE 12.7 mph - N/A   Unknown
5:15 PM 97.9 °F - 48.7 °F 19% 29.99 in 10.0 mi SSE 8.1 mph - N/A   Unknown
5:35 PM 99.3 °F - 48.4 °F 18% 29.99 in 10.0 mi SSE 12.7 mph 19.6 mph N/A   Unknown
5:55 PM 98.6 °F - 48.7 °F 18% 29.99 in 10.0 mi South 12.7 mph 16.1 mph N/A   Unknown
6:15 PM 98.2 °F - 48.2 °F 18% 29.99 in 10.0 mi South 11.5 mph 18.4 mph N/A   Unknown
6:35 PM 97.2 °F - 48.2 °F 19% 29.99 in 10.0 mi South 9.2 mph 21.9 mph N/A   Unknown
6:55 PM 96.3 °F - 48.2 °F 19% 29.99 in 10.0 mi SSE 12.7 mph - N/A   Unknown
7:15 PM 95.2 °F - 48.6 °F 20% 29.99 in 10.0 mi SSE 10.4 mph - N/A   Unknown
7:35 PM 93.6 °F - 48.9 °F 22% 29.99 in 10.0 mi SSE 11.5 mph - N/A   Unknown
7:55 PM 91.8 °F - 49.1 °F 23% 29.99 in 10.0 mi SSE 9.2 mph - N/A   Unknown
8:15 PM 88.7 °F - 49.1 °F 25% 30.00 in 10.0 mi SSE 9.2 mph - N/A   Unknown
8:35 PM 86.2 °F - 48.9 °F 27% 30.00 in 7.0 mi SSE 8.1 mph - N/A   Unknown
8:55 PM 83.3 °F - 48.6 °F 30% 30.01 in 5.0 mi SSE 8.1 mph - N/A   Unknown
9:15 PM 81.0 °F - 48.4 °F 32% 30.02 in 5.0 mi South 4.6 mph - N/A   Unknown
9:35 PM 80.2 °F - 48.6 °F 33% 30.02 in 7.0 mi South 5.8 mph - N/A   Unknown
9:55 PM 78.4 °F - 48.9 °F 35% 30.02 in 10.0 mi SSE 6.9 mph - N/A   Unknown
10:15 PM 77.2 °F - 49.1 °F 37% 30.03 in 10.0 mi SSE 6.9 mph - N/A   Unknown
10:35 PM 75.4 °F - 48.0 °F 38% 30.03 in 10.0 mi SSE 6.9 mph - N/A   Unknown
10:55 PM 75.0 °F - 48.2 °F 39% 30.03 in 10.0 mi South 6.9 mph - N/A   Unknown
11:15 PM 74.3 °F - 49.3 °F 41% 30.04 in 10.0 mi South 5.8 mph - N/A   Unknown
11:35 PM 74.7 °F - 50.9 °F 43% 30.03 in 10.0 mi South 5.8 mph - N/A   Unknown
11:55 PM 72.7 °F - 49.6 °F 44% 30.03 in 10.0 mi South 8.1 mph - N/A   Unknown